Latest Weather Observations for Kuitpo

IDS60901

Issued at 7:05 am CST Friday 1 August 2014 (issued every 10 minutes, with the page automatically refreshed every 10 minutes)

About weather observations | Map of Adelaide area stations | Latest observations for Adelaide area | Other Formats
Station Details ID: 023887 Name: KUITPO FOREST RESERVE Lat: -35.17 Lon: 138.68 Height: 365.0 m
Data from the previous 72 hours. | See also: Recent months at Kuitpo
Date/Time
CST
Tmp

°C
App
Tmp
°C
Dew
Point
°C
Rel
Hum
%
Delta-T

°C
Wind Press
QNH
hPa
Press
MSL
hPa
Rain
since
9 am
mm
Dir
 
Spd
km/h
Gust
km/h
Spd
kts
Gust
kts
01/07:00am 5.0 -0.6 3.5 90 0.6 SW 22 37 12 20 1011.5 - 22.6
01/06:30am 5.0 -4.6 3.5 90 0.6 SW 43 72 23 39 1010.3 1010.6 22.6
01/06:00am 6.2 -1.3 3.5 83 1.2 WSW 32 57 17 31 1009.8 1010.1 22.4
01/05:30am 6.0 -1.2 3.2 82 1.2 WSW 30 50 16 27 1009.2 1009.5 22.4
01/05:00am 6.0 -1.7 3.5 84 1.1 WSW 33 56 18 30 1008.7 - 22.4
01/04:30am 6.1 -2.0 3.1 81 1.3 WSW 35 65 19 35 1008.1 1008.3 22.4
01/04:00am 5.0 -1.9 4.4 96 0.3 WSW 30 50 16 27 1008.1 - 22.4
01/03:36am 5.9 -1.2 3.7 86 0.9 WSW 30 50 16 27 1008.1 - 21.6
01/03:30am 5.9 -1.6 3.6 85 1.0 WSW 32 48 17 26 1008.2 1008.4 21.6
01/03:02am 5.9 -0.8 3.7 86 0.9 WSW 28 48 15 26 1007.8 - 21.6
01/03:00am 5.5 -0.7 4.2 91 0.6 WSW 26 44 14 24 1008.0 1008.2 21.6
01/02:30am 5.3 -1.7 4.1 92 0.5 W 30 52 16 28 1007.9 1008.1 21.6
01/02:00am 5.3 -1.3 4.1 92 0.5 W 28 48 15 26 1008.1 - 21.6
01/01:30am 5.1 -1.9 4.2 94 0.4 WNW 30 61 16 33 1008.0 1008.2 21.6
01/01:00am 5.3 -1.4 3.6 89 0.7 W 28 46 15 25 1008.2 - 21.0
01/12:30am 5.9 -0.8 3.9 87 0.9 WSW 28 46 15 25 1008.3 1008.5 21.0
01/12:00am 5.2 -2.1 4.3 94 0.4 WSW 32 54 17 29 1008.1 1008.3 21.0
 
Date/Time
CST
Tmp

°C
App
Tmp
°C
Dew
Point
°C
Rel
Hum
%
Delta-T

°C
Wind Press
QNH
hPa
Press
MSL
hPa
Rain
since
9 am
mm
Dir
 
Spd
km/h
Gust
km/h
Spd
kts
Gust
kts
31/11:42pm 5.0 -4.6 4.3 95 0.3 WSW 44 69 24 37 1007.7 - 21.0
31/11:38pm 6.1 -0.3 5.2 94 0.4 W 28 52 15 28 1007.9 - 20.4
31/11:30pm 5.8 -0.2 5.5 98 0.1 W 26 44 14 24 1007.7 1007.9 20.4
31/11:20pm 5.5 -0.9 5.4 99 0.0 W 28 48 15 26 1007.7 - 20.4
31/11:00pm 4.8 -0.1 4.2 96 0.3 W 19 32 10 17 1008.1 - 20.0
31/10:30pm 5.8 -2.5 2.1 77 1.5 W 35 67 19 36 1007.7 1007.9 19.6
31/10:25pm 6.1 -1.8 2.2 76 1.6 W 33 67 18 36 1007.8 - 19.6
31/10:00pm 6.2 -0.5 3.4 82 1.2 W 28 46 15 25 1007.9 - 19.6
31/09:57pm 6.3 -0.4 3.5 82 1.2 W 28 46 15 25 1007.9 - 19.6
31/09:30pm 4.9 -0.8 3.1 88 0.8 WSW 22 39 12 21 1007.8 1008.0 19.6
31/09:00pm 4.6 -1.7 3.9 95 0.3 W 26 33 14 18 1007.7 1007.9 19.6
31/08:30pm 3.9 -2.4 3.5 97 0.2 SW 26 35 14 19 1007.4 1007.7 19.6
31/08:15pm 4.7 -6.3 3.2 90 0.6 WSW 50 78 27 42 1006.8 - 19.0
31/08:00pm 5.4 0.2 3.7 89 0.7 W 20 37 11 20 1007.1 - 18.6
31/07:30pm 4.8 -1.0 4.4 97 0.2 W 24 41 13 22 1006.7 1007.0 18.6
31/07:00pm 4.0 -6.1 3.6 97 0.2 SW 46 74 25 40 1006.5 - 18.2
31/06:54pm 5.0 -5.9 3.8 92 0.5 WSW 50 70 27 38 1005.9 - 18.0
31/06:51pm 6.4 -0.2 4.4 87 0.9 WSW 28 48 15 26 1006.2 - 18.0
31/06:30pm 6.4 0.6 4.4 87 0.9 WSW 24 35 13 19 1005.9 1006.1 18.0
31/06:00pm 5.9 0.2 5.0 94 0.4 WSW 24 39 13 21 1005.8 1006.0 18.0
31/05:30pm 5.7 -1.4 5.7 100 0.0 WSW 32 57 17 31 1005.4 1005.6 18.0
31/05:06pm 5.5 -1.6 5.5 100 0.0 WSW 32 63 17 34 1004.9 - 18.0
31/05:00pm 6.0 -1.0 6.0 100 0.0 WSW 32 48 17 26 1004.8 - 18.0
31/04:37pm 6.7 0.6 6.7 100 0.0 WSW 28 72 15 39 1004.1 - 17.6
31/04:30pm 7.0 2.1 7.0 100 0.0 W 22 37 12 20 1003.9 1004.1 17.0
31/04:04pm 7.0 1.0 7.0 100 0.0 WSW 28 46 15 25 1003.5 - 16.6
31/04:00pm 7.2 2.0 7.2 100 0.0 WSW 24 37 13 20 1003.5 - 16.2
31/03:30pm 7.7 1.1 7.7 100 0.0 W 32 54 17 29 1002.9 1003.1 15.2
31/03:00pm 8.2 1.1 8.2 100 0.0 W 35 65 19 35 1002.5 1002.7 13.6
31/02:30pm 7.7 0.9 7.7 100 0.0 W 33 54 18 29 1002.4 1002.6 12.2
31/02:03pm 8.4 2.3 8.4 100 0.0 W 30 50 16 27 1002.2 - 10.6
31/02:00pm 8.5 2.5 8.5 100 0.0 W 30 44 16 24 1002.2 - 10.4
31/01:30pm 8.1 1.6 8.1 100 0.0 WSW 32 46 17 25 1002.0 1002.2 10.0
31/01:00pm 8.1 1.6 8.1 100 0.0 W 32 59 17 32 1001.6 - 8.0
31/12:30pm 8.2 0.8 8.2 100 0.0 WSW 37 63 20 34 1002.0 1002.2 5.8
31/12:02pm 9.0 1.4 9.0 100 0.0 WSW 39 59 21 32 1001.9 - 4.0
31/12:00pm 9.7 3.0 9.7 100 0.0 W 35 44 19 24 1001.8 1001.9 3.8
31/11:30am 11.7 3.8 9.3 85 1.2 NNW 41 63 22 34 1001.1 1001.3 0.0
31/11:00am 11.7 3.4 9.3 85 1.2 NNW 43 72 23 39 1001.4 - 0.0
31/10:30am 12.2 4.7 9.6 84 1.4 NW 39 69 21 37 1002.2 1002.4 0.0
31/10:00am 12.6 5.9 9.6 82 1.6 NW 35 63 19 34 1002.1 - 0.0
31/09:30am 11.9 4.8 9.5 85 1.2 NW 37 63 20 34 1002.8 1003.0 0.0
31/09:00am 11.3 3.8 9.4 88 1.0 NW 39 65 21 35 1003.0 1003.2 0.0
31/08:30am 10.8 2.9 9.2 90 0.8 NW 41 72 22 39 1003.3 1003.5 0.0
31/08:00am 10.6 3.8 9.2 91 0.7 NW 35 65 19 35 1003.2 - 0.0
31/07:30am 10.3 2.7 9.1 92 0.6 NW 39 63 21 34 1003.1 1003.3 0.0
31/07:00am 10.0 3.0 8.6 91 0.7 NW 35 56 19 30 1003.3 - 0.0
31/06:30am 10.3 3.6 8.2 87 1.0 NW 33 54 18 29 1003.7 1003.9 0.0
31/06:00am 10.2 3.1 8.0 86 1.1 NW 35 59 19 32 1003.8 1004.0 0.0
31/05:30am 9.6 3.3 7.5 87 1.0 NW 30 54 16 29 1004.1 1004.3 0.0
31/05:00am 10.1 3.3 7.5 84 1.3 NW 33 56 18 30 1004.5 - 0.0
31/04:30am 10.6 4.0 7.8 83 1.4 NW 32 54 17 29 1004.8 1005.0 0.0
31/04:00am 11.0 4.2 7.9 81 1.5 NW 33 59 18 32 1005.2 - 0.0
31/03:30am 11.0 5.2 7.9 81 1.5 NW 28 48 15 26 1005.9 1006.1 0.0
31/03:00am 11.1 4.5 7.6 79 1.7 NW 32 52 17 28 1006.2 1006.4 0.0
31/02:30am 11.1 4.9 8.0 81 1.5 NW 30 52 16 28 1006.9 1007.2 0.0
31/02:00am 11.2 5.0 7.9 80 1.6 NW 30 50 16 27 1007.6 - 0.0
31/01:34am 11.3 5.6 8.2 81 1.5 NW 28 48 15 26 1007.8 - 0.0
31/01:30am 11.1 5.3 8.1 82 1.5 NW 28 44 15 24 1008.0 1008.2 0.0
31/01:00am 11.4 5.7 8.3 81 1.6 NW 28 48 15 26 1008.3 - 0.0
31/12:35am 11.6 5.9 8.5 81 1.6 NW 28 46 15 25 1008.6 - 0.0
31/12:30am 11.5 5.8 8.5 82 1.5 NW 28 43 15 23 1008.7 1008.9 0.0
31/12:00am 11.9 5.0 8.7 81 1.6 WNW 35 56 19 30 1009.0 1009.3 0.0
 
Date/Time
CST
Tmp

°C
App
Tmp
°C
Dew
Point
°C
Rel
Hum
%
Delta-T

°C
Wind Press
QNH
hPa
Press
MSL
hPa
Rain
since
9 am
mm
Dir
 
Spd
km/h
Gust
km/h
Spd
kts
Gust
kts
30/11:33pm 12.0 5.1 9.0 82 1.5 WNW 35 54 19 29 1009.3 - 0.0
30/11:30pm 12.1 4.9 9.1 82 1.5 WNW 37 54 20 29 1009.3 1009.6 0.0
30/11:00pm 12.2 5.0 9.2 82 1.5 WNW 37 57 20 31 1009.5 - 0.0
30/10:30pm 12.6 5.5 9.6 82 1.6 WNW 37 57 20 31 1009.8 1010.1 0.0
30/10:00pm 12.4 5.8 10.1 86 1.2 WNW 35 54 19 29 1010.3 - 0.0
30/09:30pm 12.4 6.2 10.1 86 1.2 WNW 33 57 18 31 1010.8 1011.0 0.0
30/09:00pm 12.7 6.6 10.4 86 1.2 WNW 33 54 18 29 1011.2 1011.5 0.0
30/08:30pm 12.6 7.6 11.0 90 0.9 WNW 28 48 15 26 1011.5 1011.8 0.0
30/08:00pm 12.2 7.2 11.1 93 0.6 NW 28 46 15 25 1011.8 - 0.0
30/07:33pm 11.9 7.1 11.6 98 0.2 NW 28 46 15 25 1012.0 - 0.0
30/07:30pm 12.0 6.8 11.7 98 0.2 NW 30 46 16 25 1012.1 1012.4 0.0
30/07:00pm 11.9 7.6 11.9 100 0.0 NW 26 44 14 24 1012.2 - 0.0
30/06:30pm 11.9 6.8 11.9 100 0.0 NW 30 56 16 30 1012.0 1012.3 0.0
30/06:01pm 11.8 7.0 11.8 100 0.0 NW 28 48 15 26 1012.0 - 0.0
30/06:00pm 11.8 7.4 11.8 100 0.0 NW 26 48 14 26 1012.0 1012.3 0.0
30/05:30pm 12.0 7.3 12.0 100 0.0 NW 28 46 15 25 1012.0 1012.3 0.0
30/05:00pm 12.2 7.2 12.2 100 0.0 NW 30 50 16 27 1011.9 - 0.0
30/04:30pm 12.2 7.2 12.2 100 0.0 NW 30 50 16 27 1012.0 1012.3 0.0
30/04:00pm 12.2 7.2 12.2 100 0.0 NW 30 57 16 31 1012.2 - 0.0
30/03:30pm 12.5 7.6 12.5 100 0.0 WNW 30 50 16 27 1012.5 1012.8 0.0
30/03:21pm 12.5 8.0 12.5 100 0.0 WNW 28 46 15 25 1012.5 - 0.0
30/03:00pm 12.4 7.1 12.4 100 0.0 WNW 32 44 17 24 1012.6 1012.9 0.0
30/02:30pm 12.6 7.3 12.6 100 0.0 WNW 32 54 17 29 1012.9 1013.2 0.0
30/02:00pm 12.4 7.8 12.4 100 0.0 WNW 28 50 15 27 1013.2 - 0.0
30/01:31pm 12.7 7.8 12.7 100 0.0 WNW 30 48 16 26 1013.5 - 0.0
30/01:30pm 12.7 7.5 12.7 100 0.0 WNW 32 48 17 26 1013.5 1013.8 0.0
30/01:00pm 12.2 7.2 12.2 100 0.0 WNW 30 52 16 28 1014.1 - 0.0
30/12:30pm 11.9 6.2 11.9 100 0.0 WNW 33 54 18 29 1014.4 1014.7 0.0
30/12:00pm 12.1 6.7 12.1 100 0.0 WNW 32 54 17 29 1014.9 1015.2 0.0
30/11:32am 12.3 7.7 12.3 100 0.0 WNW 28 46 15 25 1015.3 - 0.0
30/11:30am 12.3 7.7 12.3 100 0.0 WNW 28 43 15 23 1015.4 1015.7 0.0
30/11:03am 12.2 7.6 12.2 100 0.0 NW 28 46 15 25 1015.6 - 0.0
30/11:00am 11.9 6.4 11.9 100 0.0 NW 32 46 17 25 1015.6 - 0.0
30/10:30am 11.5 5.9 11.5 100 0.0 WNW 32 50 17 27 1015.9 1016.3 0.0
30/10:01am 11.3 6.4 11.3 100 0.0 WNW 28 46 15 25 1015.8 - 0.0
30/10:00am 11.3 6.0 11.3 100 0.0 WNW 30 46 16 25 1015.8 - 0.0
30/09:30am 11.3 6.0 11.3 100 0.0 WNW 30 54 16 29 1016.0 1016.4 0.0
30/09:00am 11.1 5.2 11.1 100 0.0 WNW 33 52 18 28 1015.8 1016.2 2.4
30/08:30am 11.0 6.0 11.0 100 0.0 WNW 28 46 15 25 1015.6 1015.9 2.4
30/08:00am 11.0 5.6 11.0 100 0.0 WNW 30 52 16 28 1015.7 - 2.4
30/07:30am 10.9 5.1 10.9 100 0.0 WNW 32 50 17 27 1015.8 1016.2 2.4
30/07:00am 10.7 5.6 10.7 100 0.0 NW 28 50 15 27 1015.6 - 2.4
30/06:41am 10.7 5.6 10.7 100 0.0 WNW 28 46 15 25 1015.4 - 2.4
30/06:30am 10.7 6.0 10.7 100 0.0 WNW 26 39 14 21 1015.4 1015.7 2.4
30/06:11am 10.8 5.8 10.8 100 0.0 NW 28 46 15 25 1015.2 - 2.4
30/06:00am 10.8 6.9 10.8 100 0.0 WNW 22 37 12 20 1015.3 1015.6 2.4
30/05:30am 10.8 6.1 10.8 100 0.0 NW 26 44 14 24 1015.0 1015.3 2.4
30/05:00am 10.9 7.4 10.9 100 0.0 WNW 20 30 11 16 1015.1 - 2.4
30/04:30am 10.9 7.0 10.9 100 0.0 WNW 22 33 12 18 1015.0 1015.3 2.4
30/04:00am 11.0 7.2 11.0 100 0.0 WNW 22 35 12 19 1015.2 - 2.4
30/03:30am 11.1 5.8 11.1 100 0.0 WNW 30 48 16 26 1015.4 1015.7 2.4
30/03:01am 11.1 6.1 11.1 100 0.0 WNW 28 46 15 25 1015.6 - 2.4
30/03:00am 11.1 5.8 11.1 100 0.0 WNW 30 46 16 25 1015.5 1015.8 2.4
30/02:51am 11.1 6.1 11.1 100 0.0 NW 28 46 15 25 1015.5 - 2.4
30/02:30am 11.2 6.3 11.2 100 0.0 WNW 28 44 15 24 1015.7 1016.1 2.4
30/02:00am 11.3 7.2 11.3 100 0.0 NW 24 43 13 23 1015.9 - 2.4
30/01:30am 11.3 6.8 11.3 100 0.0 NW 26 44 14 24 1016.2 1016.5 2.4
30/01:05am 11.1 6.1 11.1 100 0.0 WNW 28 46 15 25 1016.0 - 2.4
30/01:00am 11.2 7.0 11.2 100 0.0 WNW 24 43 13 23 1016.2 - 2.4
30/12:30am 11.4 6.5 11.4 100 0.0 WNW 28 48 15 26 1016.3 1016.6 2.4
30/12:25am 11.4 6.5 11.4 100 0.0 NW 28 48 15 26 1016.0 - 2.4
30/12:00am 11.5 5.9 11.5 100 0.0 WNW 32 44 17 24 1016.2 1016.5 2.4
 
Date/Time
CST
Tmp

°C
App
Tmp
°C
Dew
Point
°C
Rel
Hum
%
Delta-T

°C
Wind Press
QNH
hPa
Press
MSL
hPa
Rain
since
9 am
mm
Dir
 
Spd
km/h
Gust
km/h
Spd
kts
Gust
kts
29/11:30pm 11.5 6.7 11.5 100 0.0 NW 28 43 15 23 1016.2 1016.5 2.4
29/11:07pm 11.5 6.7 11.5 100 0.0 WNW 28 46 15 25 1016.3 - 2.4
29/11:00pm 11.5 6.7 11.5 100 0.0 WNW 28 44 15 24 1016.4 - 2.4
29/10:30pm 11.5 5.9 11.5 100 0.0 NW 32 50 17 27 1016.2 1016.5 2.4
29/10:07pm 11.6 6.4 11.6 100 0.0 WNW 30 48 16 26 1016.0 - 2.4
29/10:00pm 11.6 5.8 11.6 100 0.0 WNW 33 48 18 26 1016.0 - 2.4
29/09:30pm 11.5 6.3 11.5 100 0.0 WNW 30 48 16 26 1015.9 1016.3 2.4
29/09:00pm 11.6 6.4 11.6 100 0.0 WNW 30 50 16 27 1016.0 1016.4 2.4
29/08:41pm 11.6 6.4 11.6 100 0.0 WNW 30 52 16 28 1015.8 - 2.4
29/08:30pm 11.6 6.4 11.6 100 0.0 WNW 30 44 16 24 1015.7 1016.1 2.4
29/08:00pm 11.7 6.5 11.7 100 0.0 WNW 30 50 16 27 1015.6 - 2.4
29/07:34pm 11.6 6.4 11.6 100 0.0 WNW 30 54 16 29 1015.4 - 2.4
29/07:30pm 11.6 6.8 11.6 100 0.0 WNW 28 41 15 22 1015.4 1015.7 2.4
29/07:00pm 11.4 6.5 11.4 100 0.0 W 28 50 15 27 1015.5 - 2.4
29/06:30pm 11.7 5.6 11.7 100 0.0 WNW 35 61 19 33 1015.0 1015.3 2.2
29/06:08pm 11.9 6.8 11.9 100 0.0 WNW 30 48 16 26 1014.6 - 1.6
29/06:00pm 11.9 7.2 11.9 100 0.0 WNW 28 43 15 23 1014.6 1014.9 1.4
29/05:42pm 11.9 7.2 11.9 100 0.0 WNW 28 46 15 25 1014.5 - 1.4
29/05:30pm 11.9 7.6 11.9 100 0.0 WNW 26 43 14 23 1014.5 1014.8 1.4
29/05:02pm 11.9 7.2 11.9 100 0.0 WNW 28 48 15 26 1014.3 - 1.4
29/05:00pm 11.9 7.6 11.9 100 0.0 WNW 26 44 14 24 1014.3 - 1.4
29/04:31pm 11.8 7.0 11.8 100 0.0 WNW 28 48 15 26 1014.2 - 1.4
29/04:30pm 11.8 7.0 11.8 100 0.0 WNW 28 43 15 23 1014.3 1014.6 1.4
29/04:00pm 12.0 6.5 12.0 100 0.0 WNW 32 50 17 27 1014.0 - 1.2
29/03:30pm 12.1 6.5 12.1 100 0.0 WNW 33 61 18 33 1013.9 1014.2 0.6
29/03:02pm 12.2 7.6 12.2 100 0.0 WNW 28 46 15 25 1013.5 - 0.0
29/03:00pm 12.2 7.6 12.2 100 0.0 WNW 28 44 15 24 1013.5 1013.8 0.0
29/02:30pm 11.9 6.8 11.9 100 0.0 NW 30 54 16 29 1013.5 1013.8 0.0
29/02:00pm 12.5 7.1 12.3 99 0.1 WNW 32 54 17 29 1013.2 - 0.0
29/01:30pm 12.6 8.0 12.3 98 0.2 WNW 28 46 15 25 1013.2 1013.5 0.0
29/01:00pm 12.9 7.4 12.6 98 0.2 WNW 33 56 18 30 1013.1 - 0.0
29/12:30pm 12.0 5.6 12.0 100 0.0 WNW 37 63 20 34 1013.6 1013.9 0.0
29/12:00pm 11.9 5.8 11.9 100 0.0 WNW 35 59 19 32 1013.8 1014.1 0.0
29/11:30am 12.1 6.1 12.1 100 0.0 NW 35 63 19 34 1013.9 1014.2 0.0
29/11:00am 11.8 5.7 11.8 100 0.0 NW 35 54 19 29 1013.8 - 0.0
29/10:30am 12.1 5.5 11.5 96 0.3 NW 37 59 20 32 1013.7 1014.0 0.0
29/10:00am 11.8 5.3 11.8 100 0.0 NW 37 63 20 34 1013.4 - 0.0
29/09:30am 11.2 4.9 11.2 100 0.0 NW 35 57 19 31 1013.1 1013.4 0.0
29/09:00am 10.7 4.3 10.7 100 0.0 WNW 35 57 19 31 1013.0 1013.3 0.0
29/08:36am 10.5 4.6 10.5 100 0.0 NW 32 57 17 31 1013.0 - 0.0
29/08:30am 10.3 4.4 10.3 100 0.0 WNW 32 46 17 25 1013.0 1013.3 0.0
29/08:02am 10.2 4.2 10.2 100 0.0 NW 32 50 17 27 1012.8 - 0.0
29/08:00am 10.3 4.4 10.3 100 0.0 NW 32 46 17 25 1012.8 - 0.0
29/07:30am 10.0 3.4 10.0 100 0.0 NW 35 54 19 29 1012.7 1013.0 0.0

Latest Capital City Observations: Canberra | Sydney | Melbourne | Brisbane | Adelaide | Perth | Hobart | Darwin

Other Formats:

Comma delimited format used in spreadsheet applications
http://www.bom.gov.au/fwo/IDS60901/IDS60901.94683.axf

JavaScript Object Notation format (JSON) in row-major order
http://www.bom.gov.au/fwo/IDS60901/IDS60901.94683.json